N694PB KBUF-KMVY

Flight info

Callsign N694PB
Flight time 1h 32m
Altitude 29000
Route KELIE Q818 CFB J95 DPK RIFLE Q430 ACK
Aircraft TBM9/L-SDFGRWY/L

Departure

Time 2026-05-09 10:50
Airport Buffalo Niagara International Airport (KBUF)

Arrival

Time 2026-05-09 12:23
Airport Martha's Vineyard Airport (KMVY)
Time Latitude Longitude Altitude Speed Heading
2026-05-09 10:42 42.94573 -78.73311 696 ft 0 kts 216°
2026-05-09 10:47 42.94570 -78.73314 698 ft 2 kts 214°
2026-05-09 10:47 42.94561 -78.73364 702 ft 10 kts 306°
2026-05-09 10:47 42.94605 -78.73449 698 ft 12 kts 303°
2026-05-09 10:48 42.94643 -78.73545 700 ft 12 kts 297°
2026-05-09 10:48 42.94683 -78.73651 703 ft 13 kts 298°
2026-05-09 10:48 42.94729 -78.73767 699 ft 14 kts 298°
2026-05-09 10:48 42.94748 -78.73893 702 ft 13 kts 272°
2026-05-09 10:49 42.94752 -78.74019 707 ft 14 kts 273°
2026-05-09 10:49 42.94721 -78.74130 705 ft 13 kts 210°
2026-05-09 10:49 42.94648 -78.74088 714 ft 12 kts 128°
2026-05-09 10:49 42.94577 -78.73957 713 ft 36 kts 129°
2026-05-09 10:50 42.94319 -78.73487 702 ft 86 kts 127°
2026-05-09 10:50 42.93888 -78.72703 812 ft 114 kts 128°
2026-05-09 10:50 42.93419 -78.71852 1245 ft 116 kts 127°
2026-05-09 10:50 42.92859 -78.70952 1506 ft 130 kts 152°
2026-05-09 10:51 42.92032 -78.70963 2039 ft 122 kts 215°
2026-05-09 10:51 42.91695 -78.71999 2481 ft 130 kts 272°
2026-05-09 10:51 42.91975 -78.73199 2926 ft 137 kts 297°
2026-05-09 10:51 42.92567 -78.74323 3123 ft 161 kts 304°
2026-05-09 10:52 42.93307 -78.75670 3135 ft 192 kts 305°
2026-05-09 10:52 42.94144 -78.77195 3131 ft 208 kts 305°
2026-05-09 10:52 42.95029 -78.78806 3126 ft 216 kts 305°
2026-05-09 10:52 42.95944 -78.80474 3126 ft 221 kts 305°
2026-05-09 10:53 42.96872 -78.82170 3123 ft 225 kts 305°
2026-05-09 10:53 42.97810 -78.83891 3121 ft 226 kts 305°
2026-05-09 10:53 42.98748 -78.85609 3120 ft 225 kts 305°
2026-05-09 10:53 42.99680 -78.87319 3119 ft 224 kts 305°
2026-05-09 10:54 43.00608 -78.89025 3113 ft 224 kts 305°
2026-05-09 10:54 43.01537 -78.90730 3111 ft 224 kts 305°
2026-05-09 10:54 43.02461 -78.92423 3106 ft 219 kts 305°
2026-05-09 10:54 43.03360 -78.94075 3103 ft 215 kts 305°
2026-05-09 10:55 43.04247 -78.95707 3099 ft 213 kts 305°
2026-05-09 10:55 43.05128 -78.97325 3099 ft 211 kts 305°
2026-05-09 10:55 43.06001 -78.98924 3099 ft 210 kts 305°
2026-05-09 10:55 43.06873 -79.00524 3100 ft 209 kts 305°
2026-05-09 10:56 43.07550 -79.02161 3096 ft 182 kts 291°
2026-05-09 10:56 43.07998 -79.03660 3097 ft 162 kts 290°
2026-05-09 10:56 43.08407 -79.05035 3095 ft 152 kts 290°
2026-05-09 10:56 43.08799 -79.06337 3096 ft 145 kts 289°
2026-05-09 10:57 43.09192 -79.07574 3099 ft 140 kts 297°
2026-05-09 10:57 43.09977 -79.08315 3100 ft 143 kts 354°
2026-05-09 10:57 43.10849 -79.07847 3109 ft 137 kts 54°
2026-05-09 10:57 43.11036 -79.06667 3121 ft 127 kts 109°
2026-05-09 10:58 43.10669 -79.05529 3160 ft 142 kts 117°
2026-05-09 10:58 43.10221 -79.04184 3310 ft 168 kts 117°
2026-05-09 10:58 43.09704 -79.02657 3585 ft 181 kts 117°
2026-05-09 10:58 43.09177 -79.01090 4063 ft 182 kts 116°
2026-05-09 10:59 43.08647 -78.99498 4512 ft 185 kts 116°
2026-05-09 10:59 43.08116 -78.97905 4950 ft 187 kts 116°
2026-05-09 10:59 43.07573 -78.96276 5389 ft 189 kts 116°
2026-05-09 10:59 43.07025 -78.94628 5830 ft 191 kts 116°
2026-05-09 11:00 43.06469 -78.92966 6269 ft 193 kts 116°
2026-05-09 11:00 43.05908 -78.91285 6674 ft 196 kts 117°
2026-05-09 11:00 43.05336 -78.89580 7078 ft 199 kts 117°
2026-05-09 11:00 43.04758 -78.87848 7487 ft 201 kts 117°
2026-05-09 11:01 43.04171 -78.86096 7896 ft 204 kts 118°
2026-05-09 11:01 43.03576 -78.84320 8306 ft 207 kts 118°
2026-05-09 11:01 43.02973 -78.82522 8714 ft 209 kts 118°
2026-05-09 11:01 43.02362 -78.80700 9116 ft 212 kts 119°
2026-05-09 11:02 43.01743 -78.78855 9529 ft 215 kts 119°
2026-05-09 11:02 43.01116 -78.76985 9920 ft 218 kts 120°
2026-05-09 11:02 43.00481 -78.75097 10293 ft 220 kts 120°
2026-05-09 11:02 42.99838 -78.73186 10686 ft 223 kts 120°
2026-05-09 11:03 42.99188 -78.71254 11056 ft 225 kts 121°
2026-05-09 11:03 42.98530 -78.69301 11432 ft 227 kts 121°
2026-05-09 11:03 42.98091 -78.67999 11680 ft 229 kts 121°
2026-05-09 11:03 42.97416 -78.65999 12014 ft 234 kts 122°
2026-05-09 11:04 42.96734 -78.63975 12396 ft 236 kts 122°
2026-05-09 11:04 42.96045 -78.61934 12776 ft 238 kts 123°
2026-05-09 11:04 42.95349 -78.59876 13159 ft 240 kts 123°
2026-05-09 11:04 42.94646 -78.57794 13554 ft 243 kts 123°
2026-05-09 11:05 42.93935 -78.55693 13899 ft 245 kts 123°
2026-05-09 11:05 42.93219 -78.53579 14245 ft 246 kts 123°
2026-05-09 11:05 42.92499 -78.51455 14591 ft 248 kts 124°
2026-05-09 11:05 42.91774 -78.49317 14945 ft 249 kts 124°
2026-05-09 11:06 42.91044 -78.47167 15288 ft 251 kts 124°
2026-05-09 11:06 42.90308 -78.45002 15644 ft 252 kts 124°
2026-05-09 11:06 42.89569 -78.42826 15991 ft 254 kts 124°
2026-05-09 11:06 42.88823 -78.40636 16331 ft 255 kts 124°
2026-05-09 11:07 42.88072 -78.38431 16682 ft 257 kts 124°
2026-05-09 11:07 42.87317 -78.36214 17031 ft 259 kts 124°
2026-05-09 11:07 42.86556 -78.33983 17382 ft 260 kts 124°
2026-05-09 11:07 42.85789 -78.31739 17726 ft 262 kts 124°
2026-05-09 11:08 42.85018 -78.29480 18069 ft 264 kts 124°
2026-05-09 11:08 42.84241 -78.27209 18375 ft 265 kts 124°
2026-05-09 11:08 42.83460 -78.24926 18682 ft 267 kts 124°
2026-05-09 11:08 42.82674 -78.22629 18992 ft 268 kts 124°
2026-05-09 11:09 42.81882 -78.20322 19280 ft 269 kts 124°
2026-05-09 11:09 42.81091 -78.18012 19625 ft 270 kts 124°
2026-05-09 11:09 42.80292 -78.15689 19921 ft 272 kts 124°
2026-05-09 11:09 42.79485 -78.13343 20232 ft 275 kts 124°
2026-05-09 11:10 42.78671 -78.10979 20534 ft 277 kts 124°
2026-05-09 11:10 42.77851 -78.08595 20861 ft 279 kts 124°
2026-05-09 11:10 42.77023 -78.06192 21171 ft 281 kts 124°
2026-05-09 11:10 42.76189 -78.03771 21481 ft 283 kts 124°
2026-05-09 11:11 42.75348 -78.01337 21785 ft 285 kts 124°
2026-05-09 11:11 42.74500 -77.98884 22083 ft 287 kts 124°
2026-05-09 11:11 42.73647 -77.96416 22383 ft 290 kts 124°
2026-05-09 11:11 42.72798 -77.93962 22677 ft 292 kts 124°
2026-05-09 11:12 42.71930 -77.91454 22983 ft 294 kts 124°
2026-05-09 11:12 42.71055 -77.88931 23292 ft 296 kts 124°
2026-05-09 11:12 42.70171 -77.86390 23566 ft 298 kts 124°
2026-05-09 11:12 42.69284 -77.83835 23820 ft 300 kts 125°
2026-05-09 11:13 42.68393 -77.81269 24080 ft 301 kts 125°
2026-05-09 11:13 42.67496 -77.78693 24333 ft 302 kts 125°
2026-05-09 11:13 42.66595 -77.76106 24600 ft 303 kts 125°
2026-05-09 11:13 42.65720 -77.73484 24867 ft 308 kts 122°
2026-05-09 11:14 42.64912 -77.70785 25131 ft 309 kts 122°
2026-05-09 11:14 42.64092 -77.68084 25416 ft 310 kts 122°
2026-05-09 11:14 42.63265 -77.65379 25689 ft 311 kts 122°
2026-05-09 11:14 42.62436 -77.62658 25943 ft 313 kts 123°
2026-05-09 11:15 42.61603 -77.59923 26173 ft 314 kts 123°
2026-05-09 11:15 42.60766 -77.57175 26435 ft 316 kts 123°
2026-05-09 11:15 42.59924 -77.54418 26695 ft 317 kts 123°
2026-05-09 11:15 42.59078 -77.51648 26961 ft 319 kts 123°
2026-05-09 11:16 42.58227 -77.48865 27224 ft 320 kts 123°
2026-05-09 11:16 42.57369 -77.46071 27470 ft 322 kts 123°
2026-05-09 11:16 42.56508 -77.43261 27730 ft 323 kts 123°
2026-05-09 11:16 42.55645 -77.40440 27960 ft 324 kts 123°
2026-05-09 11:17 42.54776 -77.37615 28214 ft 326 kts 124°
2026-05-09 11:17 42.53900 -77.34770 28461 ft 328 kts 123°
2026-05-09 11:17 42.53022 -77.31910 28715 ft 329 kts 124°
2026-05-09 11:17 42.52135 -77.29047 28923 ft 331 kts 124°
2026-05-09 11:18 42.51228 -77.26127 28922 ft 341 kts 123°
2026-05-09 11:18 42.49345 -77.20040 28922 ft 359 kts 122°
2026-05-09 11:19 42.47377 -77.13683 28931 ft 372 kts 122°
2026-05-09 11:19 42.45350 -77.07157 28932 ft 379 kts 122°
2026-05-09 11:20 42.43286 -77.00525 28932 ft 384 kts 122°
2026-05-09 11:20 42.41193 -76.93828 28938 ft 388 kts 122°
2026-05-09 11:21 42.39090 -76.87105 28941 ft 388 kts 122°
2026-05-09 11:21 42.36983 -76.80406 28932 ft 391 kts 122°
2026-05-09 11:22 42.34862 -76.73653 28930 ft 390 kts 122°
2026-05-09 11:22 42.32730 -76.66904 28930 ft 390 kts 122°
2026-05-09 11:23 42.30598 -76.60164 28928 ft 390 kts 122°
2026-05-09 11:23 42.28461 -76.53428 28933 ft 390 kts 122°
2026-05-09 11:24 42.26321 -76.46698 28928 ft 391 kts 122°
2026-05-09 11:24 42.24173 -76.39957 28933 ft 391 kts 122°
2026-05-09 11:25 42.22020 -76.33221 28934 ft 391 kts 122°
2026-05-09 11:25 42.19861 -76.26485 28930 ft 391 kts 122°
2026-05-09 11:26 42.17703 -76.19763 28936 ft 390 kts 122°
2026-05-09 11:26 42.15507 -76.13087 28938 ft 386 kts 127°
2026-05-09 11:27 42.12904 -76.06777 28940 ft 386 kts 128°
2026-05-09 11:27 42.10321 -76.00441 28940 ft 385 kts 129°
2026-05-09 11:28 42.07715 -75.94136 28940 ft 386 kts 128°
2026-05-09 11:28 42.05116 -75.87822 28942 ft 385 kts 129°
2026-05-09 11:29 42.02508 -75.81522 28941 ft 385 kts 129°
2026-05-09 11:29 41.99901 -75.75226 28954 ft 386 kts 128°
2026-05-09 11:30 41.97283 -75.68923 28954 ft 386 kts 128°
2026-05-09 11:30 41.94663 -75.62621 28959 ft 386 kts 129°
2026-05-09 11:31 41.92038 -75.56331 28956 ft 386 kts 129°
2026-05-09 11:31 41.89410 -75.50039 28958 ft 386 kts 129°
2026-05-09 11:32 41.86777 -75.43754 28963 ft 386 kts 129°
2026-05-09 11:32 41.84136 -75.37463 28966 ft 388 kts 128°
2026-05-09 11:33 41.81508 -75.31210 28977 ft 388 kts 128°
2026-05-09 11:33 41.77531 -75.21780 28977 ft 388 kts 128°
2026-05-09 11:34 41.74875 -75.15496 28983 ft 387 kts 129°
2026-05-09 11:34 41.72217 -75.09225 28982 ft 387 kts 129°
2026-05-09 11:35 41.69556 -75.02956 28985 ft 389 kts 128°
2026-05-09 11:35 41.66876 -74.96658 28999 ft 389 kts 128°
2026-05-09 11:36 41.64195 -74.90369 28999 ft 389 kts 128°
2026-05-09 11:36 41.61508 -74.84082 28997 ft 389 kts 128°
2026-05-09 11:37 41.58821 -74.77804 28998 ft 389 kts 128°
2026-05-09 11:37 41.56123 -74.71526 28998 ft 390 kts 128°
2026-05-09 11:38 41.53425 -74.65251 28989 ft 389 kts 128°
2026-05-09 11:38 41.50724 -74.58992 29005 ft 389 kts 128°
2026-05-09 11:39 41.48020 -74.52729 29003 ft 389 kts 128°
2026-05-09 11:40 41.43962 -74.43345 29007 ft 390 kts 128°
2026-05-09 11:40 41.41251 -74.37093 29002 ft 389 kts 129°
2026-05-09 11:41 41.38119 -74.31336 29010 ft 383 kts 137°
2026-05-09 11:41 41.34892 -74.25680 29007 ft 384 kts 137°
2026-05-09 11:42 41.31642 -74.20059 29006 ft 383 kts 137°
2026-05-09 11:42 41.28408 -74.14445 29000 ft 382 kts 136°
2026-05-09 11:43 41.25170 -74.08852 29006 ft 382 kts 137°
2026-05-09 11:43 41.21935 -74.03267 29005 ft 381 kts 137°
2026-05-09 11:44 41.18698 -73.97689 29002 ft 381 kts 136°
2026-05-09 11:44 41.15458 -73.92118 29007 ft 381 kts 136°
2026-05-09 11:45 41.12219 -73.86557 29008 ft 381 kts 137°
2026-05-09 11:45 41.08977 -73.81001 29014 ft 381 kts 137°
2026-05-09 11:46 41.05730 -73.75447 29007 ft 381 kts 137°
2026-05-09 11:46 41.02507 -73.69944 29011 ft 379 kts 137°
2026-05-09 11:47 40.99253 -73.64398 29004 ft 379 kts 136°
2026-05-09 11:47 40.96041 -73.58934 29007 ft 379 kts 137°
2026-05-09 11:48 40.92782 -73.53399 29008 ft 379 kts 137°
2026-05-09 11:48 40.89566 -73.47946 29007 ft 379 kts 137°
2026-05-09 11:49 40.86325 -73.42464 29008 ft 379 kts 137°
2026-05-09 11:49 40.83609 -73.37872 29010 ft 379 kts 137°
2026-05-09 11:50 40.80490 -73.32240 29014 ft 386 kts 127°
2026-05-09 11:50 40.78515 -73.25587 29016 ft 395 kts 106°
2026-05-09 11:51 40.77523 -73.18446 29024 ft 396 kts 103°
2026-05-09 11:51 40.76520 -73.11312 29021 ft 396 kts 103°
2026-05-09 11:52 40.75528 -73.04171 29024 ft 395 kts 103°
2026-05-09 11:52 40.74531 -72.97090 29023 ft 395 kts 103°
2026-05-09 11:53 40.73520 -72.89912 29032 ft 396 kts 103°
2026-05-09 11:53 40.72516 -72.82825 29030 ft 396 kts 103°
2026-05-09 11:54 40.71502 -72.75699 29037 ft 396 kts 104°
2026-05-09 11:54 40.70482 -72.68568 29039 ft 396 kts 104°
2026-05-09 11:55 40.69569 -72.61418 29042 ft 397 kts 95°
2026-05-09 11:56 40.72470 -72.43930 29044 ft 392 kts 69°
2026-05-09 11:56 40.73298 -72.40507 29044 ft 392 kts 69°
2026-05-09 11:57 40.74963 -72.33665 29053 ft 392 kts 69°
2026-05-09 11:57 40.76618 -72.26813 29052 ft 392 kts 69°
2026-05-09 11:58 40.78280 -72.19966 29052 ft 391 kts 67°
2026-05-09 11:58 40.80081 -72.13196 29072 ft 393 kts 66°
2026-05-09 11:59 40.81875 -72.06359 29076 ft 395 kts 66°
2026-05-09 11:59 40.83679 -71.99518 29073 ft 395 kts 66°
2026-05-09 12:00 40.85474 -71.92665 29070 ft 394 kts 66°
2026-05-09 12:00 40.87265 -71.85821 29067 ft 394 kts 66°
2026-05-09 12:01 40.89049 -71.78978 29068 ft 394 kts 66°
2026-05-09 12:01 40.90831 -71.72126 28875 ft 396 kts 67°
2026-05-09 12:01 40.91727 -71.68667 28383 ft 398 kts 67°
2026-05-09 12:02 40.92622 -71.65205 27883 ft 399 kts 67°
2026-05-09 12:02 40.93523 -71.61730 27342 ft 400 kts 67°
2026-05-09 12:02 40.94427 -71.58306 26820 ft 400 kts 66°
2026-05-09 12:02 40.95354 -71.54838 26288 ft 400 kts 66°
2026-05-09 12:03 40.96271 -71.51370 25766 ft 400 kts 67°
2026-05-09 12:03 40.97182 -71.47889 25240 ft 400 kts 67°
2026-05-09 12:03 40.98097 -71.44406 24708 ft 401 kts 67°
2026-05-09 12:03 40.99014 -71.40925 24204 ft 401 kts 67°
2026-05-09 12:04 40.99929 -71.37439 23707 ft 401 kts 68°
2026-05-09 12:04 41.00785 -71.33921 23138 ft 402 kts 71°
2026-05-09 12:04 41.01535 -71.30356 22554 ft 401 kts 72°
2026-05-09 12:04 41.02290 -71.26798 21989 ft 401 kts 72°
2026-05-09 12:05 41.03058 -71.23256 21439 ft 400 kts 72°
2026-05-09 12:05 41.03821 -71.19716 20902 ft 400 kts 72°
2026-05-09 12:05 41.04573 -71.16177 20377 ft 399 kts 72°
2026-05-09 12:05 41.05328 -71.12640 19878 ft 399 kts 72°
2026-05-09 12:06 41.06083 -71.09107 19374 ft 398 kts 72°
2026-05-09 12:06 41.06834 -71.05580 18886 ft 398 kts 72°
2026-05-09 12:06 41.07580 -71.02053 18410 ft 397 kts 73°
2026-05-09 12:06 41.08323 -70.98537 17871 ft 395 kts 73°
2026-05-09 12:07 41.09062 -70.95042 17336 ft 391 kts 73°
2026-05-09 12:07 41.09782 -70.91621 16802 ft 380 kts 73°
2026-05-09 12:07 41.10489 -70.88282 16289 ft 372 kts 72°
2026-05-09 12:07 41.11179 -70.85011 15784 ft 365 kts 73°
2026-05-09 12:08 41.11854 -70.81792 15293 ft 359 kts 73°
2026-05-09 12:08 41.12520 -70.78627 14821 ft 354 kts 73°
2026-05-09 12:08 41.13173 -70.75509 14359 ft 349 kts 73°
2026-05-09 12:08 41.13817 -70.72429 13916 ft 344 kts 73°
2026-05-09 12:09 41.14452 -70.69392 13422 ft 340 kts 73°
2026-05-09 12:09 41.15081 -70.66387 12950 ft 337 kts 73°
2026-05-09 12:09 41.15703 -70.63402 12489 ft 334 kts 73°
2026-05-09 12:10 41.17538 -70.54565 11107 ft 328 kts 74°
2026-05-09 12:10 41.18140 -70.51661 10655 ft 325 kts 74°
2026-05-09 12:10 41.18736 -70.48776 10212 ft 323 kts 74°
2026-05-09 12:11 41.19329 -70.45914 9764 ft 321 kts 75°
2026-05-09 12:11 41.19915 -70.43069 9296 ft 319 kts 75°
2026-05-09 12:11 41.20498 -70.40241 8842 ft 317 kts 75°
2026-05-09 12:11 41.21076 -70.37432 8395 ft 314 kts 75°
2026-05-09 12:12 41.21649 -70.34638 7956 ft 313 kts 75°
2026-05-09 12:12 41.22223 -70.31850 7533 ft 313 kts 75°
2026-05-09 12:12 41.22785 -70.29101 7132 ft 312 kts 76°
2026-05-09 12:12 41.23360 -70.26291 6717 ft 310 kts 76°
2026-05-09 12:13 41.23991 -70.23558 6291 ft 309 kts 67°
2026-05-09 12:13 41.25081 -70.21124 5859 ft 305 kts 51°
2026-05-09 12:13 41.26514 -70.19150 5546 ft 290 kts 36°
2026-05-09 12:13 41.28173 -70.17732 5260 ft 279 kts 22°
2026-05-09 12:14 41.29934 -70.16876 4963 ft 269 kts
2026-05-09 12:14 41.31754 -70.16537 4661 ft 260 kts 356°
2026-05-09 12:14 41.33520 -70.16698 4472 ft 250 kts 345°
2026-05-09 12:14 41.35165 -70.17296 4300 ft 242 kts 334°
2026-05-09 12:15 41.36653 -70.18270 4127 ft 236 kts 323°
2026-05-09 12:15 41.37948 -70.19564 3957 ft 231 kts 313°
2026-05-09 12:15 41.39024 -70.21124 3801 ft 227 kts 303°
2026-05-09 12:15 41.39981 -70.22800 3647 ft 228 kts 304°
2026-05-09 12:16 41.40960 -70.24464 3493 ft 229 kts 304°
2026-05-09 12:16 41.41937 -70.26142 3336 ft 230 kts 304°
2026-05-09 12:16 41.42918 -70.27823 3181 ft 230 kts 304°
2026-05-09 12:16 41.43905 -70.29511 3017 ft 231 kts 304°
2026-05-09 12:17 41.44890 -70.31209 2868 ft 232 kts 304°
2026-05-09 12:17 41.45881 -70.32912 2711 ft 233 kts 305°
2026-05-09 12:17 41.46877 -70.34626 2557 ft 234 kts 304°
2026-05-09 12:17 41.47877 -70.36348 2401 ft 235 kts 305°
2026-05-09 12:18 41.48881 -70.38077 2251 ft 236 kts 305°
2026-05-09 12:18 41.49894 -70.39810 2097 ft 237 kts 305°
2026-05-09 12:18 41.50721 -70.41683 1926 ft 234 kts 288°
2026-05-09 12:18 41.51084 -70.43762 1793 ft 229 kts 272°
2026-05-09 12:19 41.50988 -70.45856 1708 ft 223 kts 256°
2026-05-09 12:19 41.50470 -70.47755 1692 ft 215 kts 238°
2026-05-09 12:19 41.49613 -70.49325 1694 ft 210 kts 226°
2026-05-09 12:19 41.48553 -70.50655 1695 ft 208 kts 220°
2026-05-09 12:20 41.47453 -70.51912 1704 ft 207 kts 219°
2026-05-09 12:20 41.46418 -70.53089 1712 ft 183 kts 219°
2026-05-09 12:20 41.45492 -70.54144 1576 ft 163 kts 219°
2026-05-09 12:20 41.44701 -70.55050 1370 ft 139 kts 217°
2026-05-09 12:21 41.43983 -70.55869 1182 ft 131 kts 219°
2026-05-09 12:21 41.43305 -70.56645 1010 ft 126 kts 218°
2026-05-09 12:21 41.42657 -70.57383 834 ft 123 kts 218°
2026-05-09 12:21 41.42042 -70.58082 687 ft 103 kts 218°
2026-05-09 12:22 41.41551 -70.58645 562 ft 88 kts 213°
2026-05-09 12:22 41.41072 -70.59196 437 ft 93 kts 219°
2026-05-09 12:22 41.40571 -70.59763 311 ft 94 kts 216°
2026-05-09 12:22 41.40108 -70.60317 180 ft 85 kts 217°
2026-05-09 12:23 41.39668 -70.60803 70 ft 78 kts 215°
2026-05-09 12:23 41.39314 -70.61199 61 ft 44 kts 220°
2026-05-09 12:23 41.39153 -70.61389 61 ft 29 kts 226°
2026-05-09 12:23 41.39077 -70.61473 62 ft 8 kts 205°
2026-05-09 12:24 41.39032 -70.61439 61 ft 8 kts 132°
2026-05-09 12:24 41.38999 -70.61388 62 ft 5 kts 135°
2026-05-09 12:24 41.38967 -70.61407 62 ft 6 kts 219°
2026-05-09 12:24 41.38927 -70.61449 59 ft 8 kts 223°
2026-05-09 12:25 41.38887 -70.61494 59 ft 5 kts 168°
2026-05-09 12:25 41.38861 -70.61457 62 ft 7 kts 130°
2026-05-09 12:25 41.38837 -70.61405 61 ft 6 kts 68°
2026-05-09 12:25 41.38873 -70.61376 62 ft 5 kts 321°
2026-05-09 12:26 41.38862 -70.61418 60 ft 2 kts 221°
2026-05-09 12:26 41.38861 -70.61419 60 ft 0 kts 220°